NOAA 16 DEB, 41418

Orbit data source: Space-Track

NOAA 16 DEB, 41418 is space debris in SSO originally from a launch on Thu, 21 Sep 2000 UTC launched from the Air Force Western Test Range (AFWTR). Debris objects in space refer to the collection of defunct objects orbiting the Earth. Examples of debris include non-operational satellites, rocket bodies, and fragments generated from explosions, collisions, or faulty payload assembly.

Loading next visibility...
Identifier
41418, 2000-055KX
Orbit
SSO
Country
Flag of USUS
Related business
Manufacturer
Unknown
Mission
Spacecraft
Bus & Motor
Unknown
Mass
Unknown
Launch date (UTC)
2000-09-21 (25 years ago)
Launch vehicle
Unknown
Launch site
Air Force Western Test Range (AFWTR)
Object type
Payload
Rocket body
Debris
Shape & HBR
Unknown shape, 0.1 m
Radar Cross Section
Small (<0.1 m²)

Expand to show TLE details & history
Last TLE update: 1 day ago

TLE from 1 day ago
0 NOAA 16 DEB
1 41418U 00055KX  25292.44673145  .00015765  00000-0  42577-2 0  9993
2 41418  99.0196 149.0559 0028668 106.5332 253.9011 14.47656415502390
Epoch: 2025-10-19T10:43Z
TLE epoch observation values (Epoch: 2025-10-19T10:43:17.597Z)
Latitude
-0.00004°
Longitude
-39.93069°
Altitude
741.964 km
Speed
7.481 km/s
True Right ascension
09h 56m 13s
True Declination
0° 00' 00"
Sunlit
Object was in daylight at epoch
Visualization orbit readout
Latitude
Unknown
Longitude
Unknown
Altitude
Unknown
Speed
Unknown
Apparent Right ascension
Unknown
Apparent Declination
Unknown
Sunlit
N/A
Visualization observer readout
Local Sidereal Time
08:31:22
Azimuth
Unknown
Elevation
Unknown
Doppler factor
Unknown
Orbital elements
Apogee altitude
750.829 km
Perigee altitude
710.071 km
Semi-major axis
7,108.587 km
Eccentricity
0.00287
Inclination
99.0196°
RAAN
149.0559°
Arg. of periapsis
106.5332°
True anomaly
253.58579°
Mean anomaly
253.9011°
Eccentric anomaly
253.74341°
Mean motion
3.62133 °/min
Orbital period
99.41 mins
BSTAR
0.0042577
Loading maneuver chart data...
Computing Atmospheric mass density...
Loading historical data...
Loading historical data...
Loading historical data...
Loading historical data...
Loading historical data...
Loading historical data...
Loading historical data...

Documentation

Showing up to 5 results
|